Weather History for Olathe, KS

Change the Weather History Date:

Wednesday, June 27, 2012

  Actual Average Record
Temperature  
Mean Temperature 86 °F 76 °F  
Max Temperature 99 °F 85 °F 105 °F (1980)
Min Temperature 72 °F 67 °F 48 °F (1968)
Degree Days  
Heating Degree Days 0 0  
Month to date heating degree days 8 6  
Since 1 June heating degree days 8 6  
Since 1 July heating degree days 3815 4932  
Cooling Degree Days 21 11  
Month to date cooling degree days 302 224  
Year to date cooling degree days 562 328  
Since 1 June cooling degree days 302 224  
Growing Degree Days 36 (Base 50)    
Moisture  
Dew Point 65 °F    
Average Humidity 51    
Maximum Humidity 64    
Minimum Humidity 38    
Precipitation  
Precipitation 0.00 in 0.13 in 2.70 in (1969)
Month to date precipitation 1.51 5.38  
Year to date precipitation 12.90 20.12  
Sea Level Pressure  
Sea Level Pressure 29.81 in    
Wind  
Wind Speed 11 mph (South)    
Max Wind Speed 18 mph    
Max Gust Speed 28 mph    
Visibility 10 miles    
Events      
T = Trace of Precipitation, MM = Missing Value Source: NWS Daily Summary

Daily Weather History Graph

Daily Weather History Graph

Search for Another Location

Airport:

Trip Planner

Search our weather history database for the weather conditions in past years. The results will help you decide how hot, cold, wet, or windy it might be!

Date:

Astronomy

Jun. 27, 2012 Rise Set
Actual Time 5:55 AM CDT 8:48 PM CDT
Civil Twilight 5:23 AM CDT 9:20 PM CDT
Nautical Twilight 4:43 AM CDT 10:00 PM CDT
Astronomical Twilight 3:57 AM CDT 10:46 PM CDT
Moon 2:15 PM CDT (6/27) 12:52 AM CDT (6/27)
Length of Visible Light 15h 56m
Length of Day
14h 52m
First Quarter, 56% of the Moon is Illuminated
Jun 27
First Quarter
Jul 3
Full
Jul 10
Last Quarter
Jul 18
New
Jul 26
First Quarter

Hourly Weather History & Observations

Time (CDT) Temp. Heat Index Dew Point Humidity Pressure Visibility Wind Dir Wind Speed Gust Speed Precip Events Conditions
12:53 AM 80.1 °F 81.9 °F 64.9 °F 60% 29.77 in 10.0 mi SSE 12.7 mph - N/A   Clear
1:53 AM 78.1 °F - 64.0 °F 62% 29.76 in 10.0 mi South 12.7 mph - N/A   Clear
2:53 AM 78.1 °F - 62.1 °F 58% 29.74 in 10.0 mi SSE 12.7 mph - N/A   Clear
3:53 AM 75.9 °F - 60.1 °F 58% 29.75 in 10.0 mi South 9.2 mph - N/A   Clear
4:53 AM 73.0 °F - 60.1 °F 64% 29.78 in 10.0 mi South 6.9 mph - N/A   Clear
5:53 AM 73.0 °F - 59.0 °F 61% 29.79 in 10.0 mi South 8.1 mph - N/A   Clear
6:53 AM 75.0 °F - 57.9 °F 55% 29.82 in 10.0 mi South 11.5 mph - N/A   Clear
7:53 AM 77.0 °F - 59.0 °F 54% 29.83 in 10.0 mi South 11.5 mph - N/A   Clear
8:53 AM 80.1 °F 81.2 °F 62.1 °F 54% 29.85 in 10.0 mi South 13.8 mph 21.9 mph N/A   Clear
9:53 AM 84.9 °F 86.6 °F 64.9 °F 51% 29.84 in 10.0 mi SSW 16.1 mph 23.0 mph N/A   Clear
10:53 AM 88.0 °F 90.3 °F 66.0 °F 48% 29.84 in 10.0 mi SSW 12.7 mph 21.9 mph N/A   Clear
11:53 AM 91.0 °F 95.2 °F 68.0 °F 47% 29.84 in 10.0 mi SSW 13.8 mph - N/A   Clear
12:53 PM 93.9 °F 98.6 °F 68.0 °F 43% 29.83 in 10.0 mi SSW 12.7 mph - N/A   Clear
1:53 PM 96.1 °F 101.6 °F 69.1 °F 41% 29.83 in 10.0 mi South 10.4 mph 19.6 mph N/A   Clear
2:53 PM 97.0 °F 102.2 °F 68.0 °F 39% 29.81 in 10.0 mi SSW 13.8 mph 23.0 mph N/A   Clear
3:53 PM 98.1 °F 104.4 °F 69.1 °F 39% 29.81 in 10.0 mi South 11.5 mph 23.0 mph N/A   Clear
4:53 PM 98.1 °F 103.0 °F 68.0 °F 37% 29.81 in 10.0 mi South 11.5 mph 21.9 mph N/A   Clear
5:53 PM 97.0 °F 102.2 °F 68.0 °F 39% 29.79 in 10.0 mi SSW 10.4 mph - N/A   Clear
6:53 PM 95.0 °F 99.5 °F 68.0 °F 41% 29.79 in 10.0 mi SSW 8.1 mph 17.3 mph N/A   Clear
7:53 PM 93.0 °F 97.4 °F 68.0 °F 44% 29.80 in 10.0 mi SSW 11.5 mph - N/A   Clear
8:53 PM 89.1 °F 92.9 °F 68.0 °F 50% 29.81 in 10.0 mi South 8.1 mph - N/A   Clear
9:53 PM 84.9 °F 88.2 °F 68.0 °F 57% 29.83 in 10.0 mi South 5.8 mph - N/A   Clear
10:53 PM 84.0 °F 87.0 °F 68.0 °F 58% 29.84 in 10.0 mi South 9.2 mph - N/A   Clear
11:53 PM 84.9 °F 87.1 °F 66.0 °F 53% 29.84 in 10.0 mi SSW 12.7 mph - N/A   Clear